Zurück zum Katalog

COSMOS 2491 DEB

LostPO
NORAD 45173·DEBRIS·🇷🇺 Russia

Gestartet Dec 25, 2013 von Plesetsk Cosmodrome

Loading…

Nächste Überflüge (nächste 24 Stunden)

TLE

VeraltetSource: Space-Track

Epoche: Nov 2, 2022, 15:06 UTC

1 45173U 13076AE  22306.62923154  .00003974  00000-0  21389-1 0  9999
2 45173  82.4508 256.4219 0265500 324.6808  33.6936 12.55110726 12505

Verfolge COSMOS 2491 DEB in Echtzeit mit AllMySat

Download on the App Store